Index of /20260504/WXO-DD/model_gdps/15km/12/082
Name Last modified Size Description
Parent Directory -
20260504T12Z_MSC_GDPS_AirTemp_AGL-120m_LatLon0.15_PT082H.grib2 2026-05-04 16:18 907K
20260504T12Z_MSC_GDPS_AirTemp_AGL-2m_LatLon0.15_PT082H.grib2 2026-05-04 16:18 1.0M
20260504T12Z_MSC_GDPS_AirTemp_AGL-40m_LatLon0.15_PT082H.grib2 2026-05-04 16:18 813K
20260504T12Z_MSC_GDPS_AirTemp_AGL-80m_LatLon0.15_PT082H.grib2 2026-05-04 16:18 919K
20260504T12Z_MSC_GDPS_Albedo_Sfc_LatLon0.15_PT082H.grib2 2026-05-04 16:18 241K
20260504T12Z_MSC_GDPS_ConvectivePrecip-Accum_Sfc_LatLon0.15_PT082H.grib2 2026-05-04 16:18 3.2M
20260504T12Z_MSC_GDPS_DewPointDepression_AGL-2m_LatLon0.15_PT082H.grib2 2026-05-04 16:18 762K
20260504T12Z_MSC_GDPS_DewPoint_AGL-2m_LatLon0.15_PT082H.grib2 2026-05-04 16:18 608K
20260504T12Z_MSC_GDPS_DownwardLongwaveRadiationFlux-Accum_Sfc_LatLon0.15_PT082H.grib2 2026-05-04 16:18 692K
20260504T12Z_MSC_GDPS_DownwardShortwaveRadiationFlux-Accum_Sfc_LatLon0.15_PT082H.grib2 2026-05-04 16:18 902K
20260504T12Z_MSC_GDPS_FreezingRain-Accum1h_Sfc_LatLon0.15_PT082H.grib2 2026-05-04 16:18 43K
20260504T12Z_MSC_GDPS_FreezingRain-Accum_Sfc_LatLon0.15_PT082H.grib2 2026-05-04 16:18 321K
20260504T12Z_MSC_GDPS_IcePellets-Accum1h_Sfc_LatLon0.15_PT082H.grib2 2026-05-04 16:18 14K
20260504T12Z_MSC_GDPS_IcePellets-Accum_Sfc_LatLon0.15_PT082H.grib2 2026-05-04 16:18 92K
20260504T12Z_MSC_GDPS_LatentHeatNetFlux_Sfc_LatLon0.15_PT082H.grib2 2026-05-04 16:18 671K
20260504T12Z_MSC_GDPS_NetLongwaveRadiationFlux-Accum_Sfc_LatLon0.15_PT082H.grib2 2026-05-04 16:18 923K
20260504T12Z_MSC_GDPS_NetShortwaveRadiationFlux-Accum_Sfc_LatLon0.15_PT082H.grib2 2026-05-04 16:18 883K
20260504T12Z_MSC_GDPS_O3MixingRatio_Sfc_LatLon0.15_PT082H.grib2 2026-05-04 17:17 2.3M
20260504T12Z_MSC_GDPS_O3_EAtm_LatLon0.15_PT082H.grib2 2026-05-04 17:17 2.4M
20260504T12Z_MSC_GDPS_PlanetaryBoundaryLayerHeight_Sfc_LatLon0.15_PT082H.grib2 2026-05-04 16:18 2.4M
20260504T12Z_MSC_GDPS_Precip-Accum1h_Sfc_LatLon0.15_PT082H.grib2 2026-05-04 16:18 3.2M
20260504T12Z_MSC_GDPS_Precip-Accum_Sfc_LatLon0.15_PT082H.grib2 2026-05-04 16:18 4.9M
20260504T12Z_MSC_GDPS_PrecipRate_Sfc_LatLon0.15_PT082H.grib2 2026-05-04 16:18 3.0M
20260504T12Z_MSC_GDPS_Pressure_MSL_LatLon0.15_PT082H.grib2 2026-05-04 16:18 718K
20260504T12Z_MSC_GDPS_Pressure_Sfc_LatLon0.15_PT082H.grib2 2026-05-04 16:18 1.1M
20260504T12Z_MSC_GDPS_RadiativeTemp_Sfc_LatLon0.15_PT082H.grib2 2026-05-04 16:18 658K
20260504T12Z_MSC_GDPS_Rain-Accum1h_Sfc_LatLon0.15_PT082H.grib2 2026-05-04 16:18 1.6M
20260504T12Z_MSC_GDPS_Rain-Accum_Sfc_LatLon0.15_PT082H.grib2 2026-05-04 16:18 3.8M
20260504T12Z_MSC_GDPS_RelativeHumidity_AGL-2m_LatLon0.15_PT082H.grib2 2026-05-04 16:18 1.0M
20260504T12Z_MSC_GDPS_Runoff-Accum_Sfc_LatLon0.15_PT082H.grib2 2026-05-04 16:18 117K
20260504T12Z_MSC_GDPS_SensibleHeatNetFlux_Sfc_LatLon0.15_PT082H.grib2 2026-05-04 16:18 446K
20260504T12Z_MSC_GDPS_Snow-Accum1h_Sfc_LatLon0.15_PT082H.grib2 2026-05-04 16:18 1.3M
20260504T12Z_MSC_GDPS_Snow-Accum_Sfc_LatLon0.15_PT082H.grib2 2026-05-04 16:18 2.0M
20260504T12Z_MSC_GDPS_SnowDepth_Sfc_LatLon0.15_PT082H.grib2 2026-05-04 16:18 1.7M
20260504T12Z_MSC_GDPS_SoilTemp_DBS-0to10cm_LatLon0.15_PT082H.grib2 2026-05-04 16:18 512K
20260504T12Z_MSC_GDPS_SoilTemp_Sfc_LatLon0.15_PT082H.grib2 2026-05-04 16:18 578K
20260504T12Z_MSC_GDPS_SoilVolumetricWaterContent_DBS-0to10cm_LatLon0.15_PT082H.grib2 2026-05-04 16:18 595K
20260504T12Z_MSC_GDPS_SoilVolumetricWaterContent_DBS-0to1cm_LatLon0.15_PT082H.grib2 2026-05-04 16:18 656K
20260504T12Z_MSC_GDPS_SpecificHumidity_AGL-120m_LatLon0.15_PT082H.grib2 2026-05-04 16:18 1.1M
20260504T12Z_MSC_GDPS_SpecificHumidity_AGL-2m_LatLon0.15_PT082H.grib2 2026-05-04 16:18 1.2M
20260504T12Z_MSC_GDPS_SpecificHumidity_AGL-40m_LatLon0.15_PT082H.grib2 2026-05-04 16:18 1.1M
20260504T12Z_MSC_GDPS_SpecificHumidity_AGL-80m_LatLon0.15_PT082H.grib2 2026-05-04 16:18 1.1M
20260504T12Z_MSC_GDPS_SpecificHumidity_Sfc_LatLon0.15_PT082H.grib2 2026-05-04 16:18 639K
20260504T12Z_MSC_GDPS_TotalCloudCover_Sfc_LatLon0.15_PT082H.grib2 2026-05-04 16:18 823K
20260504T12Z_MSC_GDPS_UVIndex-ClearSky_Sfc_LatLon0.15_PT082H.grib2 2026-05-04 17:17 1.0M
20260504T12Z_MSC_GDPS_UVIndex_Sfc_LatLon0.15_PT082H.grib2 2026-05-04 17:17 1.5M
20260504T12Z_MSC_GDPS_UpwardLongwaveRadiationFlux_NTAtm_LatLon0.15_PT082H.grib2 2026-05-04 16:18 831K
20260504T12Z_MSC_GDPS_WindDir_AGL-10m_LatLon0.15_PT082H.grib2 2026-05-04 16:18 1.3M
20260504T12Z_MSC_GDPS_WindDir_AGL-120m_LatLon0.15_PT082H.grib2 2026-05-04 16:18 1.3M
20260504T12Z_MSC_GDPS_WindDir_AGL-40m_LatLon0.15_PT082H.grib2 2026-05-04 16:18 1.4M
20260504T12Z_MSC_GDPS_WindDir_AGL-80m_LatLon0.15_PT082H.grib2 2026-05-04 16:18 1.4M
20260504T12Z_MSC_GDPS_WindDir_IsbL-0700_LatLon0.15_PT082H.grib2 2026-05-04 16:18 1.6M
20260504T12Z_MSC_GDPS_WindGust-Max_AGL-10m_LatLon0.15_PT082H.grib2 2026-05-04 16:18 2.2M
20260504T12Z_MSC_GDPS_WindGust-Min_AGL-10m_LatLon0.15_PT082H.grib2 2026-05-04 16:18 2.2M
20260504T12Z_MSC_GDPS_WindGust_AGL-10m_LatLon0.15_PT082H.grib2 2026-05-04 16:18 2.2M
20260504T12Z_MSC_GDPS_WindSpeed_AGL-10m_LatLon0.15_PT082H.grib2 2026-05-04 16:18 1.1M
20260504T12Z_MSC_GDPS_WindSpeed_AGL-120m_LatLon0.15_PT082H.grib2 2026-05-04 16:18 1.2M
20260504T12Z_MSC_GDPS_WindSpeed_AGL-40m_LatLon0.15_PT082H.grib2 2026-05-04 16:18 1.2M
20260504T12Z_MSC_GDPS_WindSpeed_AGL-80m_LatLon0.15_PT082H.grib2 2026-05-04 16:18 1.2M
20260504T12Z_MSC_GDPS_WindSpeed_IsbL-0700_LatLon0.15_PT082H.grib2 2026-05-04 16:18 1.5M
20260504T12Z_MSC_GDPS_WindU_AGL-10m_LatLon0.15_PT082H.grib2 2026-05-04 16:18 1.6M
20260504T12Z_MSC_GDPS_WindU_AGL-120m_LatLon0.15_PT082H.grib2 2026-05-04 16:18 970K
20260504T12Z_MSC_GDPS_WindU_AGL-40m_LatLon0.15_PT082H.grib2 2026-05-04 16:18 964K
20260504T12Z_MSC_GDPS_WindU_AGL-80m_LatLon0.15_PT082H.grib2 2026-05-04 16:18 970K
20260504T12Z_MSC_GDPS_WindU_IsbL-0700_LatLon0.15_PT082H.grib2 2026-05-04 16:18 1.2M
20260504T12Z_MSC_GDPS_WindV_AGL-10m_LatLon0.15_PT082H.grib2 2026-05-04 16:18 1.6M
20260504T12Z_MSC_GDPS_WindV_AGL-120m_LatLon0.15_PT082H.grib2 2026-05-04 16:18 970K
20260504T12Z_MSC_GDPS_WindV_AGL-40m_LatLon0.15_PT082H.grib2 2026-05-04 16:18 964K
20260504T12Z_MSC_GDPS_WindV_AGL-80m_LatLon0.15_PT082H.grib2 2026-05-04 16:18 970K
20260504T12Z_MSC_GDPS_WindV_IsbL-0700_LatLon0.15_PT082H.grib2 2026-05-04 16:18 1.2M